Wind_Speed
4 7 10 9 8 8 9 17 19 13 14 15 18 20 11 17 19 17 11 9 10 10 10 11 15 23 20 18 20 18 16 20 26 29 29 30 31 29 30 28 27 30 36 31
10 11 5 12 9 10 11 8 8 10 17 14 13 13 10 12 7 9 9 11 11 5 6 7 15 18 14 17 22 23 25 29 28 26 27 30 30 30 31 33 36 40 44 45
16 12 7 11 9 7 6 7 8 7 13 9 10 13 17 14 12 16 19 16 13 8 11 15 11 13 16 22 28 27 25 26 26 28 28 28 28 28 28 28 32 36 41 47
15 16 16 11 10 8 11 12 4 1 6 5 10 5 25 19 18 21 19 18 11 12 13 13 16 22 25 24 24 26 27 28 28 29 30 32 33 32 32 36 38 35 33 35
6 10 13 11 10 11 10 17 14 13 10 12 13 11 20 23 25 16 18 15 15 15 16 18 18 18 22 25 26 26 26 26 28 29 30 33 35 35 37 37 34 33 32 34
16 12 7 9 13 11 14 13 13 8 10 10 20 17 18 30 26 25 20 13 14 14 17 16 19 20 24 25 23 22 23 26 27 28 30 34 34 33 32 32 33 34 34 35
11 18 19 17 13 16 14 9 1 2 2 5 10 15 15 19 23 19 16 15 10 10 14 17 20 22 24 22 22 22 24 26 27 27 32 36 33 32 32 33 35 36 38 38
11 2 11 13 14 7 6 8 7 5 4 3 9 2 8 16 24 23 19 13 8 10 14 19 23 24 24 24 23 23 25 28 27 29 32 36 35 33 33 35 36 38 39 38
5 2 4 6 10 12 5 16 17 22 21 8 6 6 5 11 16 13 10 9 9 13 17 22 24 23 23 24 23 24 26 29 29 31 33 37 37 35 35 36 39 41 41 38
5 7 8 12 11 13 18 17 6 8 2 2 5 12 6 16 11 11 8 8 12 17 21 24 22 21 22 24 24 23 27 30 31 33 35 36 38 37 36 36 38 40 40 36
6 7 7 9 15 14 8 11 12 12 6 4 0 2 14 15 14 9 5 6 10 15 20 26 22 20 21 23 24 24 26 30 31 34 36 37 39 36 35 37 40 43 42 37
7 6 10 13 11 12 7 4 7 9 6 4 1 5 11 9 9 8 4 8 11 16 26 26 22 20 20 22 23 23 26 30 33 36 36 40 38 35 36 38 41 42 42 37
6 2 5 11 6 9 15 17 11 6 6 5 2 2 8 8 2 1 8 10 14 21 26 23 21 20 20 22 22 24 28 31 34 35 35 38 37 36 37 38 41 42 42 36
2 2 4 6 7 9 8 9 11 4 5 3 4 12 8 6 8 7 7 9 17 24 23 21 19 20 20 22 23 25 29 32 34 34 35 39 41 39 39 39 40 42 40 34
4 6 5 3 7 6 6 10 8 5 7 8 6 16 9 3 3 7 5 12 18 21 20 18 18 20 21 23 24 24 26 31 33 34 35 40 42 40 38 38 40 40 37 31
7 7 5 10 5 6 10 17 14 1 11 11 17 14 2 2 4 5 12 14 18 21 17 17 19 20 22 23 25 25 25 28 32 37 36 37 41 40 36 38 40 39 36 30
7 5 5 3 4 4 6 16 19 21 12 11 12 7 2 2 4 9 16 18 19 18 16 17 19 21 22 23 26 28 29 31 33 36 35 34 40 41 37 38 38 37 35 29
11 9 6 3 2 3 5 10 6 12 10 6 5 4 5 5 12 17 17 15 15 14 16 18 19 22 23 23 24 27 28 30 32 35 36 33 39 41 37 36 38 36 34 29
6 3 4 4 6 3 2 2 4 8 9 9 6 7 2 13 16 11 17 20 17 14 18 19 19 22 22 23 25 28 28 28 30 33 35 35 38 37 35 36 38 38 34 30
5 4 3 3 1 2 2 2 6 4 5 2 6 8 11 12 11 13 15 15 10 11 17 23 24 27 24 22 24 27 27 27 30 33 36 35 37 34 34 37 37 37 34 30
3 3 6 5 3 3 3 7 1 2 1 6 11 6 6 7 8 8 11 15 13 16 23 26 26 25 24 23 23 24 26 26 29 31 34 33 33 32 33 35 34 35 34 31
4 5 4 3 3 1 8 2 1 2 5 7 8 6 6 7 9 14 15 16 18 21 21 20 20 21 21 22 22 21 23 24 26 28 31 30 31 29 32 36 37 36 35 33
6 7 7 4 5 6 5 2 1 4 3 5 2 4 4 12 12 16 17 19 20 18 19 19 20 20 20 20 19 19 20 22 21 24 27 29 28 28 29 33 38 42 42 38
9 10 5 9 9 6 5 4 2 8 5 1 8 11 13 11 12 16 15 15 17 17 17 17 19 20 21 23 23 22 19 18 19 20 22 28 29 26 23 28 36 41 38 40
7 8 7 5 12 9 5 9 8 8 2 7 10 13 15 11 12 14 15 15 15 16 18 20 21 24 24 22 22 22 20 16 17 20 24 22 22 23 23 27 33 37 38 35
4 10 11 4 9 7 9 9 5 5 7 10 9 9 10 12 13 14 15 17 18 19 20 21 23 23 23 25 22 21 24 18 16 18 20 29 26 22 23 24 27 31 34 32
Wind_Direction
245 225 211 210 259 286 267 254 238 215 203 213 231 216 210 186 197 217 200 235 243 255 307 315 325 321 322 322 325 325 315 302 308 308 310 309 305 301 298 293 286 278 274 279
214 245 310 285 260 245 256 296 175 188 205 194 209 227 243 221 254 185 194 207 220 260 272 288 298 309 320 305 304 302 293 297 303 299 292 291 294 293 289 281 272 269 271 275
259 280 273 221 243 273 268 286 186 213 196 190 210 215 211 215 177 196 192 200 221 241 245 268 282 286 288 280 284 288 301 308 302 308 312 310 306 301 293 285 279 274 271 269
265 256 262 265 267 250 259 253 254 280 240 246 295 235 216 201 199 205 221 238 223 235 249 259 262 271 279 291 298 303 311 310 308 312 315 312 312 309 303 302 299 289 277 268
285 254 258 270 256 254 233 252 281 275 271 277 245 232 209 213 199 210 206 202 215 240 258 269 282 284 285 294 300 309 312 307 313 318 316 313 313 309 307 306 303 298 288 280
240 256 251 223 243 235 247 266 280 269 257 251 250 229 191 200 200 190 193 205 223 245 265 281 282 280 290 301 305 312 312 317 318 321 319 324 321 316 313 310 308 306 302 296
269 257 256 241 253 255 262 264 277 293 265 230 262 247 258 201 197 204 173 199 231 258 280 288 294 295 304 311 317 319 324 319 321 323 331 331 325 321 319 317 315 312 308 301
303 347 230 248 258 259 272 228 195 218 219 229 288 298 128 114 151 169 186 212 239 264 279 287 295 305 311 316 321 328 325 321 326 329 329 336 332 327 324 322 319 318 314 307
305 280 308 210 198 227 239 231 251 257 271 297 173 136 126 177 187 188 193 191 233 266 279 287 301 309 313 317 324 331 324 328 330 330 328 333 333 330 327 327 326 323 319 312
270 284 270 280 259 262 260 256 286 224 109 250 231 161 188 192 183 171 203 224 254 276 287 303 310 313 318 320 327 331 324 331 333 332 331 332 335 331 329 326 324 327 325 318
323 261 267 290 285 303 246 262 246 257 194 159 342 44 165 168 164 179 198 277 274 283 298 310 316 320 322 320 328 326 328 333 338 336 334 334 334 330 327 327 331 332 330 321
254 284 284 283 290 225 220 41 279 276 230 175 191 162 157 172 195 220 256 262 288 297 304 309 320 323 323 321 327 327 329 338 340 339 338 335 334 332 332 333 334 334 331 325
279 270 354 325 272 313 338 313 311 340 259 236 101 170 199 211 247 106 226 264 283 299 303 314 322 325 325 322 334 331 335 339 340 341 341 340 335 337 338 336 336 335 332 327
300 48 8 34 13 346 337 20 359 341 308 44 202 153 158 138 190 235 265 282 297 308 310 318 325 325 324 327 340 342 336 338 343 342 340 346 345 342 341 338 336 335 332 329
75 69 61 30 26 30 45 20 342 287 293 225 135 135 149 95 344 227 246 271 306 316 319 324 325 326 329 333 343 344 339 338 342 343 342 344 347 344 341 340 340 338 336 333
70 99 70 55 29 34 60 44 21 30 67 118 117 97 70 148 165 248 270 298 316 327 326 326 326 331 335 338 340 343 347 340 344 346 344 347 349 346 345 344 344 343 342 337
90 90 107 79 24 56 45 52 49 76 81 111 90 68 310 324 289 275 292 298 311 328 328 332 334 334 336 341 343 344 349 347 347 347 346 345 349 350 349 349 350 348 347 342
81 62 82 131 44 34 108 65 72 85 87 90 98 32 8 317 286 285 306 319 332 336 335 338 331 331 337 341 343 343 349 346 345 347 347 348 350 351 352 350 356 354 354 351
121 121 115 138 85 97 105 60 98 45 75 48 20 355 317 310 335 359 349 337 348 346 327 327 330 324 335 339 341 341 346 346 345 347 352 354 353 354 354 356 0 359 359 358
52 53 125 142 137 146 63 191 232 252 108 22 1 332 337 319 313 340 338 338 330 312 321 332 326 335 341 335 339 338 341 345 344 351 357 356 355 359 360 1 2 4 4 4
199 109 107 95 97 103 145 258 151 324 118 5 332 330 21 352 354 340 298 310 319 319 322 322 321 327 328 334 334 334 340 348 349 356 359 358 1 7 9 8 7 9 11 12
183 202 162 126 114 167 219 202 342 76 6 310 43 5 350 336 302 299 306 318 326 324 324 328 328 328 330 332 330 334 342 354 354 360 3 6 8 18 22 23 19 18 19 16
197 206 181 164 141 175 163 187 41 8 317 86 4 359 308 308 315 325 320 324 325 330 330 341 349 348 344 340 340 345 350 355 359 10 15 14 19 29 31 31 26 25 24 22
230 219 202 160 151 161 162 178 310 76 106 261 283 303 319 301 317 326 323 326 343 354 353 358 2 5 8 13 14 5 358 4 4 13 13 13 22 29 28 24 19 16 17 21
220 198 177 156 156 157 144 120 127 156 226 303 324 329 337 351 348 348 1 359 1 5 11 15 17 19 17 12 12 14 12 13 16 16 15 9 17 24 17 12 12 15 13 13
212 172 191 160 138 150 145 169 207 245 309 316 323 6 3 360 8 12 22 32 33 29 26 24 24 24 24 24 21 20 20 17 23 18 22 25 29 17 4 5 6 3 5 9
Height
3134 3136 3134 3134 3135 3134 3135 3137 3136 3138 3139 3143 3141 3140 3140 3141 3144 3146 3146 3147 3146 3145 3145 3143 3141 3140 3137 3136 3132 3130 3128 3124 3120 3118 3114 3112 3109 3107 3105 3104 3101 3097 3093 3089
3134 3132 3132 3133 3133 3134 3136 3135 3133 3135 3137 3140 3138 3137 3137 3138 3141 3143 3145 3145 3145 3144 3143 3142 3141 3139 3136 3133 3130 3127 3125 3122 3120 3116 3112 3108 3105 3103 3101 3098 3095 3091 3087 3085
3131 3130 3132 3132 3132 3133 3133 3133 3134 3132 3135 3137 3138 3137 3134 3136 3139 3141 3142 3142 3142 3142 3142 3140 3138 3136 3135 3130 3127 3124 3121 3118 3113 3109 3106 3104 3101 3097 3093 3090 3087 3083 3079 3076
3130 3129 3129 3130 3130 3131 3130 3131 3131 3131 3131 3132 3134 3133 3132 3133 3136 3138 3140 3140 3139 3138 3138 3137 3136 3134 3129 3125 3122 3119 3117 3112 3107 3104 3101 3095 3089 3084 3081 3076 3072 3069 3067 3062
3130 3126 3127 3128 3128 3127 3127 3127 3129 3129 3129 3129 3130 3132 3128 3130 3132 3134 3135 3136 3136 3135 3134 3133 3131 3129 3126 3122 3119 3115 3112 3106 3103 3099 3094 3087 3081 3075 3070 3065 3060 3056 3053 3049
3126 3125 3126 3125 3125 3125 3125 3127 3127 3127 3127 3126 3124 3127 3125 3122 3126 3128 3130 3132 3133 3131 3131 3130 3127 3125 3122 3119 3116 3112 3107 3102 3098 3093 3087 3080 3073 3067 3062 3057 3052 3047 3042 3039
3124 3123 3123 3123 3124 3123 3124 3125 3126 3129 3128 3124 3122 3123 3120 3117 3120 3125 3129 3131 3130 3128 3127 3125 3123 3121 3117 3114 3110 3106 3102 3097 3093 3087 3080 3073 3066 3060 3054 3048 3042 3036 3031 3026
3122 3122 3120 3119 3121 3122 3121 3122 3124 3126 3125 3121 3120 3122 3120 3116 3120 3124 3126 3128 3127 3125 3124 3121 3119 3116 3112 3109 3105 3101 3097 3092 3087 3080 3074 3067 3059 3053 3047 3040 3033 3027 3019 3013
3121 3120 3119 3118 3118 3120 3120 3119 3120 3118 3118 3117 3118 3122 3123 3123 3124 3123 3125 3125 3124 3122 3121 3119 3116 3112 3108 3104 3101 3097 3092 3086 3080 3074 3068 3061 3053 3046 3039 3032 3025 3018 3010 3002
3120 3117 3116 3116 3117 3119 3117 3118 3116 3115 3119 3122 3115 3117 3120 3122 3122 3123 3123 3122 3121 3120 3118 3116 3113 3109 3104 3099 3097 3093 3087 3081 3074 3068 3062 3055 3047 3039 3032 3026 3019 3010 3002 2994
3117 3116 3116 3116 3115 3114 3114 3113 3113 3113 3114 3116 3119 3120 3120 3119 3120 3123 3123 3120 3119 3117 3115 3112 3109 3105 3101 3096 3093 3088 3083 3076 3070 3063 3056 3048 3041 3034 3026 3018 3009 3001 2993 2986
3114 3114 3113 3115 3111 3110 3111 3110 3109 3111 3112 3111 3114 3120 3120 3120 3122 3123 3122 3120 3117 3114 3112 3109 3105 3102 3098 3092 3089 3084 3078 3072 3065 3058 3050 3044 3036 3027 3019 3010 3002 2994 2985 2977
3113 3113 3113 3112 3112 3109 3109 3108 3109 3109 3110 3110 3115 3117 3118 3119 3121 3121 3120 3118 3115 3113 3109 3105 3102 3098 3094 3089 3086 3080 3074 3068 3061 3053 3046 3039 3030 3020 3012 3004 2995 2987 2978 2970
3111 3113 3114 3116 3116 3113 3113 3112 3109 3110 3111 3111 3113 3115 3118 3120 3120 3119 3118 3115 3113 3110 3106 3102 3098 3094 3090 3085 3082 3077 3070 3063 3056 3049 3042 3033 3023 3014 3006 2998 2989 2981 2972 2962
3112 3113 3114 3113 3113 3113 3112 3111 3111 3110 3111 3113 3114 3113 3117 3119 3120 3116 3114 3113 3111 3107 3103 3099 3095 3091 3087 3082 3079 3074 3067 3060 3053 3046 3038 3029 3019 3010 3001 2993 2984 2975 2965 2957
3112 3113 3114 3114 3113 3113 3113 3113 3111 3111 3112 3113 3112 3115 3117 3117 3115 3115 3112 3111 3108 3104 3100 3096 3092 3088 3084 3079 3075 3070 3065 3058 3050 3042 3034 3026 3017 3007 2998 2989 2980 2969 2960 2953
3113 3113 3114 3115 3115 3115 3116 3117 3116 3114 3116 3117 3117 3119 3118 3116 3115 3112 3110 3108 3106 3102 3098 3094 3090 3085 3081 3076 3071 3066 3061 3054 3047 3040 3031 3023 3014 3004 2995 2986 2976 2966 2957 2949
3114 3114 3115 3116 3116 3119 3119 3119 3121 3120 3120 3120 3119 3118 3118 3116 3112 3110 3108 3105 3102 3098 3095 3092 3087 3082 3078 3074 3069 3063 3058 3051 3045 3037 3029 3020 3011 3001 2992 2984 2974 2965 2955 2947
3114 3115 3116 3117 3117 3119 3118 3120 3122 3121 3121 3120 3119 3118 3117 3113 3110 3107 3106 3103 3101 3097 3093 3089 3085 3080 3076 3072 3067 3061 3056 3050 3042 3035 3026 3017 3008 2999 2991 2983 2973 2963 2954 2945
3116 3115 3116 3117 3117 3120 3120 3120 3120 3120 3120 3119 3119 3117 3116 3113 3110 3109 3106 3103 3098 3094 3092 3087 3081 3078 3074 3070 3065 3059 3054 3047 3040 3032 3023 3016 3007 2998 2990 2981 2973 2963 2954 2945
3116 3116 3116 3116 3117 3120 3120 3119 3119 3120 3125 3119 3118 3116 3115 3112 3111 3109 3103 3100 3097 3095 3090 3086 3080 3075 3070 3066 3061 3056 3051 3045 3038 3030 3023 3015 3007 2998 2991 2983 2975 2965 2955 2947
3115 3117 3116 3117 3118 3120 3119 3120 3120 3122 3121 3119 3117 3115 3113 3112 3109 3104 3102 3099 3096 3092 3087 3082 3077 3072 3067 3062 3058 3053 3047 3042 3036 3030 3023 3015 3008 2999 2993 2985 2978 2968 2958 2950
3114 3115 3115 3117 3118 3118 3119 3120 3120 3121 3119 3117 3116 3114 3112 3109 3107 3104 3100 3097 3093 3088 3083 3078 3074 3069 3064 3059 3054 3049 3045 3040 3036 3029 3024 3016 3009 3002 2996 2989 2982 2972 2962 2954
3111 3112 3114 3116 3117 3117 3119 3120 3121 3121 3119 3117 3115 3113 3111 3107 3105 3102 3098 3094 3089 3086 3082 3077 3073 3068 3063 3058 3053 3048 3044 3039 3035 3029 3024 3018 3011 3004 2999 2992 2984 2976 2968 2960
3110 3110 3112 3114 3115 3117 3119 3120 3120 3117 3118 3116 3114 3112 3109 3106 3103 3099 3096 3093 3090 3085 3081 3077 3072 3067 3062 3058 3053 3049 3043 3038 3034 3030 3025 3019 3012 3006 3000 2994 2987 2979 2971 2964
3108 3109 3110 3112 3114 3117 3119 3119 3120 3121 3119 3117 3113 3111 3108 3106 3103 3100 3097 3093 3089 3086 3081 3077 3073 3069 3064 3059 3054 3049 3044 3039 3035 3031 3026 3020 3012 3008 3002 2997 2991 2983 2975 2968